Des Moines, IA

11:12 PM CST on February 10, 2016 (GMT -0600)
Des Moines International

Weather History for KDSM - November, 2014

Change the Weather History Date:

Saturday, November 29, 2014

  Actual Average Record
Temperature  
Mean Temperature 46 °F 32 °F  
Max Temperature 59 °F 40 °F 70 °F (1998)
Min Temperature 33 °F 24 °F -10 °F (1891)
Degree Days  
Heating Degree Days 19 33  
Month to date heating degree days 900 741  
Since 1 July heating degree days 1282 1225  
Cooling Degree Days 0 0  
Month to date cooling degree days 0 0  
Year to date cooling degree days 1075 1066  
Moisture  
Dew Point 38 °F    
Average Humidity 70    
Maximum Humidity 82    
Minimum Humidity 57    
Precipitation  
Precipitation 0.00 in 0.06 in 1.07 in (1975)
Month to date precipitation 0.58 2.13  
Year to date precipitation 40.96 34.54  
Snow  
Snow 0.00 in 0.20 in 2.60 in (1886)
Month to date snowfall 5.8 2.3  
Since 1 July snowfall 5.8 2.7  
Since 1 September snowfall 5.8 2.7  
Snow Depth 1.00 in    
Sea Level Pressure  
Sea Level Pressure 29.56 in    
Wind  
Wind Speed 8 mph (SSW)    
Max Wind Speed 17 mph    
Max Gust Speed 22 mph    
Visibility 10 miles    
Events      
T = Trace of Precipitation, MM = Missing Value Source: NWS Daily Summary

Daily Weather History Graph

Daily Weather History Graph

Search for Another Location

Airport or City:

Trip Planner

Search our weather history database for the weather conditions in past years. The results will help you decide how hot, cold, wet, or windy it might be!

Date:

Astronomy

Nov. 29, 2014 Rise Set
Actual Time 7:19 AM CST 4:46 PM CST
Civil Twilight 6:48 AM CST 5:16 PM CST
Nautical Twilight 6:14 AM CST 5:51 PM CST
Astronomical Twilight 5:41 AM CST 6:24 PM CST
Moon 12:46 PM CST (11/29) No Moon Set
Length of Visible Light 10h 28m
Length of Day
9h 26m
First Quarter, 54% of the Moon is Illuminated
Nov 29
First Quarter
Dec 6
Full
Dec 14
Last Quarter
Dec 21
New
Dec 28
First Quarter

Hourly Weather History & Observations

Time (CST) Temp. Windchill Dew Point Humidity Pressure Visibility Wind Dir Wind Speed Gust Speed Precip Events Conditions
12:54 AM 37.0 °F 32.4 °F 30.9 °F 79% 29.63 in 10.0 mi SSE 5.8 mph - N/A   Scattered Clouds
1:54 AM 36.0 °F 29.6 °F 30.9 °F 82% 29.62 in 10.0 mi SSE 8.1 mph - N/A   Scattered Clouds
2:54 AM 37.0 °F 31.0 °F 30.9 °F 79% 29.61 in 10.0 mi SSE 8.1 mph - N/A   Partly Cloudy
3:54 AM 35.1 °F 27.4 °F 30.0 °F 82% 29.59 in 10.0 mi South 10.4 mph - N/A   Clear
4:54 AM 36.0 °F 29.0 °F 30.9 °F 82% 29.57 in 10.0 mi South 9.2 mph - N/A   Clear
5:54 AM 35.1 °F 28.6 °F 30.9 °F 85% 29.56 in 10.0 mi South 8.1 mph - N/A   Clear
6:54 AM 39.0 °F 32.8 °F 33.1 °F 79% 29.56 in 10.0 mi SSW 9.2 mph - N/A   Scattered Clouds
7:54 AM 41.0 °F 35.2 °F 35.1 °F 79% 29.56 in 10.0 mi SSW 9.2 mph - N/A   Mostly Cloudy
8:54 AM 44.1 °F 38.1 °F 36.0 °F 73% 29.56 in 10.0 mi SSW 11.5 mph - N/A   Mostly Cloudy
9:54 AM 46.9 °F - 37.9 °F 71% 29.57 in 10.0 mi SW 8.1 mph - N/A   Mostly Cloudy
10:54 AM 48.9 °F - 39.9 °F 71% 29.59 in 10.0 mi SW 12.7 mph - N/A   Overcast
11:54 AM 52.0 °F - 42.1 °F 69% 29.56 in 10.0 mi SW 10.4 mph - N/A   Overcast
12:54 PM 55.0 °F - 44.1 °F 67% 29.54 in 10.0 mi SW 8.1 mph - N/A   Overcast
1:54 PM 57.9 °F - 45.0 °F 62% 29.51 in 10.0 mi SW 10.4 mph - N/A   Overcast
2:54 PM 59.0 °F - 44.1 °F 58% 29.50 in 10.0 mi SSW 11.5 mph - N/A   Overcast
3:54 PM 57.0 °F - 45.0 °F 64% 29.52 in 10.0 mi SSW 6.9 mph - N/A   Overcast
4:54 PM 54.0 °F - 44.1 °F 69% 29.53 in 10.0 mi South 4.6 mph - N/A   Overcast
5:54 PM 54.0 °F - 45.0 °F 72% 29.54 in 10.0 mi South 3.5 mph - N/A   Mostly Cloudy
6:54 PM 50.0 °F - 42.1 °F 74% 29.55 in 10.0 mi South 9.2 mph - N/A   Partly Cloudy
7:54 PM 48.0 °F - 41.0 °F 77% 29.55 in 10.0 mi South 6.9 mph - N/A   Scattered Clouds
8:54 PM 48.0 °F - 39.9 °F 74% 29.55 in 10.0 mi SSW 9.2 mph - N/A   Scattered Clouds
9:54 PM 48.9 °F - 39.9 °F 71% 29.55 in 10.0 mi SW 5.8 mph - N/A   Partly Cloudy
10:54 PM 46.9 °F - 39.0 °F 74% 29.56 in 10.0 mi SSW 8.1 mph - N/A   Clear
11:54 PM 44.1 °F 42.5 °F 37.9 °F 79% 29.58 in 10.0 mi North 3.5 mph - N/A   Partly Cloudy